SCP
0 0 0 -0 0 0 0 0 -0 0 0 0 0 0 0 0 0 0 0 0 0 0 1 1 1 1 2 1 1 1 1 1 0 0 0 0 0 0 0 0 0 0 0 0
0 0 0 0 0 -0 -0 0 -0 0 0 0 0 0 0 0 0 0 0 0 0 1 1 1 1 1 1 0 0 0 0 0 0 0 0 0 0 0 0 0 0 0 0 0
0 0 0 0 -0 -0 0 -0 0 -0 0 0 0 0 0 0 0 0 0 0 0 1 1 1 1 0 0 0 0 0 0 0 0 0 0 0 0 0 0 0 0 0 0 0
0 0 0 0 0 0 -0 -0 -0 -0 -0 0 0 0 0 0 0 0 0 0 0 0 0 0 0 0 0 0 0 0 0 0 0 0 0 0 0 0 0 0 0 0 0 0
0 0 0 0 0 0 0 0 0 -0 0 0 0 0 0 0 0 0 0 0 0 0 0 0 0 0 0 0 0 0 0 0 0 0 0 0 0 0 0 0 0 0 0 0
0 0 0 0 0 0 0 -0 0 0 0 0 0 0 0 0 0 0 0 0 0 0 0 0 0 0 0 0 0 0 0 0 0 0 0 0 0 0 0 0 0 0 0 0
0 0 0 0 0 0 0 0 0 0 0 0 0 0 0 0 0 0 0 0 0 0 0 0 0 0 0 0 0 0 0 0 0 0 0 0 0 0 0 0 0 0 0 0
0 0 0 0 0 0 0 0 0 0 0 0 0 0 0 0 0 0 0 0 0 0 0 0 0 0 0 0 0 0 0 0 0 0 0 0 0 0 0 0 0 0 0 0
0 0 0 0 0 0 -0 0 0 0 0 0 0 0 0 0 0 0 0 0 0 0 0 0 0 0 0 0 0 0 0 0 0 0 0 0 0 0 0 0 0 0 0 0
0 0 0 0 0 0 0 0 0 0 0 0 0 0 0 0 0 0 0 0 0 0 0 0 0 0 0 0 0 0 0 0 0 0 0 0 0 0 0 0 0 0 0 0
0 0 0 0 0 0 0 0 0 0 0 0 0 0 0 0 0 0 0 0 0 0 0 0 0 0 0 0 0 0 0 0 0 0 0 0 0 0 0 0 0 0 0 0
0 0 0 0 0 0 0 0 0 0 0 0 0 0 0 0 0 0 0 0 0 0 0 0 0 0 0 0 0 0 0 0 0 0 0 0 0 0 0 0 0 0 0 0
0 0 0 0 0 0 0 0 0 0 0 0 0 0 0 0 0 0 0 0 0 0 0 0 0 0 0 0 0 0 0 0 0 0 0 0 0 0 0 0 0 0 0 0
0 0 0 0 0 0 0 0 0 0 0 0 0 0 0 0 0 0 0 0 0 0 0 0 0 0 0 0 0 0 0 0 0 0 0 0 0 0 0 0 0 0 0 0
0 0 0 0 0 0 0 0 0 0 0 0 0 0 0 0 0 0 0 0 0 0 0 0 0 0 0 0 0 0 0 0 0 0 0 0 0 0 0 0 0 0 0 0
0 0 0 0 0 0 0 0 0 0 0 0 0 0 0 0 0 0 0 0 0 0 0 0 0 0 0 0 0 0 0 0 0 0 0 0 0 0 0 0 0 0 0 0
0 0 0 0 0 0 0 0 0 0 0 0 0 0 0 0 0 0 0 0 0 0 0 0 0 0 0 0 0 0 0 0 0 0 0 0 0 0 0 0 0 0 0 0
0 0 0 0 0 0 0 0 0 0 0 0 0 0 0 0 0 0 0 0 0 0 0 0 0 0 0 0 0 0 0 0 0 0 0 0 0 0 0 0 0 0 0 0
0 0 0 0 0 0 0 0 0 0 0 0 0 0 0 0 0 0 0 0 0 0 0 0 0 0 0 0 0 0 0 0 0 0 0 0 0 0 0 0 0 0 0 0
0 0 0 0 0 0 0 0 0 0 0 0 0 0 0 0 0 0 0 0 0 0 0 0 0 0 0 0 0 0 0 0 0 0 0 0 0 0 0 0 0 0 0 0
0 0 0 0 0 0 0 0 0 0 0 0 0 0 0 0 0 0 0 0 0 0 0 0 0 0 0 0 0 0 0 0 0 0 0 0 0 0 0 0 0 0 0 0
0 0 0 0 0 0 0 0 0 0 0 0 0 0 0 0 0 0 0 0 0 0 0 0 0 0 0 0 0 0 0 0 0 0 0 0 0 0 0 0 0 0 0 0
0 0 0 0 0 0 0 0 0 0 0 0 0 0 0 0 0 0 0 0 0 0 0 0 0 0 0 0 0 0 0 0 0 0 0 0 0 0 0 0 0 0 0 0
0 0 0 0 0 0 0 0 0 0 0 0 0 0 0 0 0 0 0 0 0 0 0 0 0 0 0 0 0 0 0 0 0 0 0 0 0 0 0 0 0 0 0 0
0 0 0 0 0 0 0 0 0 0 0 0 0 0 0 0 0 0 0 0 0 0 0 0 0 0 0 0 0 0 0 0 0 0 0 0 0 0 0 0 0 0 0 0
0 0 0 0 0 0 0 0 0 0 0 0 0 0 0 0 0 0 0 0 0 0 0 0 0 0 0 0 0 0 0 0 0 0 0 0 0 0 0 0 0 0 0 0
0 0 0 0 0 0 0 0 0 0 0 0 0 0 0 0 0 0 0 0 0 0 0 0 0 0 0 0 0 0 0 0 0 0 0 0 0 0 0 0 0 0 0 0
Wind_Speed_500mb
44 40 30 39 41 42 42 36 33 30 33 26 23 18 23 11 3 11 16 19 21 24 26 27 26 27 28 27 26 26 26 25 24 20 17 12 7 8 12 16 20 24 26 31
45 41 37 35 36 37 38 36 37 37 39 26 27 29 24 25 15 20 17 16 18 23 26 26 26 28 27 27 24 22 26 23 20 18 17 18 18 16 12 13 16 15 16 16
33 34 37 35 36 39 37 36 33 35 30 30 29 24 21 29 20 20 20 22 25 27 27 27 27 27 28 28 29 28 28 26 24 21 19 15 12 9 7 5 5 4 6 10
19 6 36 21 32 41 43 42 38 35 37 35 37 38 15 11 20 23 26 29 30 33 34 33 34 34 35 33 32 31 29 26 22 19 17 15 13 12 9 7 3 3 4 7
18 24 28 36 28 22 29 35 36 36 35 37 34 5 14 17 24 33 35 36 35 35 36 36 34 34 34 33 32 31 29 26 23 23 22 21 18 12 11 8 7 11 11 15
14 29 37 27 33 33 28 30 32 31 26 16 12 14 21 39 38 38 38 37 38 37 36 35 34 35 36 34 33 32 30 28 25 23 20 18 13 12 6 5 2 1 1 7
24 17 16 21 26 30 30 23 11 10 18 19 20 26 8 45 43 42 39 38 37 36 35 35 35 35 36 35 33 32 31 28 23 17 12 10 14 13 9 6 5 6 10 10
19 25 33 11 19 24 33 48 18 22 22 23 22 21 40 46 49 49 45 41 38 38 37 37 37 37 37 35 33 30 25 18 19 20 18 15 12 8 5 1 3 6 10 12
18 11 21 42 35 51 45 37 26 28 23 26 36 41 47 51 53 51 49 46 42 40 39 36 34 36 37 35 32 26 25 24 21 19 15 12 9 5 2 2 4 9 11 12
26 22 23 23 42 39 25 41 36 29 28 33 47 49 54 54 55 53 50 48 44 44 41 39 35 33 32 32 30 28 26 23 20 18 13 10 7 5 3 3 7 11 13 14
33 35 44 40 32 33 38 31 31 27 31 38 46 53 58 58 57 53 51 47 46 44 43 40 38 36 33 31 30 27 24 21 18 16 13 8 6 6 5 15 16 17 20 22
17 28 22 30 37 20 35 37 37 35 34 42 48 55 58 57 54 53 51 49 46 44 43 41 39 35 32 29 29 27 24 20 17 13 12 8 5 11 16 18 19 20 24 25
28 38 31 38 21 25 31 31 30 36 39 42 45 49 55 53 53 53 50 47 45 44 42 40 37 34 30 32 32 28 22 18 15 9 8 7 4 4 4 23 28 32 33 33
47 41 31 37 21 26 24 22 27 29 36 41 45 47 51 50 51 51 49 46 45 43 39 36 34 33 30 27 26 24 20 17 11 7 6 5 6 8 8 11 12 12 24 34
24 24 35 27 24 21 18 20 18 26 30 37 44 47 51 53 51 47 46 46 43 41 40 39 38 33 29 25 20 17 14 11 9 9 11 12 13 13 12 13 13 16 18 20
19 18 22 20 19 19 17 23 30 32 29 30 38 42 44 44 48 52 48 47 49 45 45 44 36 26 23 18 11 7 8 9 9 10 12 12 13 12 12 13 14 15 18 22
19 21 20 23 20 14 15 15 21 31 43 37 37 47 49 60 63 63 57 55 51 52 47 38 30 25 16 9 12 10 13 11 12 12 14 16 16 16 16 16 16 17 19 24
18 19 15 15 14 11 12 15 22 30 38 50 58 71 73 69 64 56 57 55 46 42 35 29 24 20 17 17 16 13 13 15 15 16 17 20 20 20 19 18 18 19 22 25
14 10 11 15 14 19 24 29 35 39 47 57 68 68 65 51 51 57 54 48 42 36 29 22 16 14 12 12 13 13 14 16 16 19 20 23 20 19 18 19 20 22 23 25
15 15 14 18 22 19 28 30 37 42 41 45 49 53 61 61 56 52 43 37 29 23 19 15 10 9 9 10 12 15 17 19 19 21 24 22 19 22 19 23 23 23 24 25
31 29 32 36 41 41 43 41 44 51 48 52 61 64 60 53 44 36 28 23 19 15 10 5 7 9 12 13 14 17 19 21 22 21 21 19 20 19 22 22 23 24 26 27
46 49 52 55 57 57 53 53 57 58 55 50 47 45 44 41 32 24 16 12 11 6 4 8 10 10 16 17 20 22 22 22 22 22 19 20 21 22 23 24 25 26 27 28
57 57 60 64 66 65 60 55 51 49 48 43 39 34 32 29 23 15 13 4 5 6 6 11 17 21 20 21 21 23 22 21 21 20 21 22 24 24 25 26 27 28 28 29
64 63 60 56 53 55 59 51 46 43 40 35 33 30 23 16 11 6 4 5 5 6 13 17 20 24 27 24 21 22 23 19 22 23 25 27 27 27 28 28 29 28 30 31
59 57 54 53 54 51 46 42 41 37 33 30 24 19 14 12 5 4 4 6 7 7 19 24 27 28 26 20 21 22 22 21 23 26 26 25 27 28 29 30 30 31 35 38
54 54 51 50 46 42 38 36 36 32 27 23 21 19 17 15 12 8 9 11 15 16 17 19 23 26 21 21 23 25 25 25 25 25 29 27 28 30 31 31 31 33 35 38
46 40 38 40 39 36 32 29 27 25 22 22 18 17 14 15 13 12 12 14 17 19 19 20 21 25 26 25 25 24 26 26 28 30 29 29 28 29 29 29 33 38 41 42
Wind_Direction_500mb
232 246 229 223 215 225 232 233 241 253 259 247 256 275 297 39 355 234 247 239 217 203 183 173 163 159 159 155 156 154 156 164 169 172 162 185 220 235 226 226 233 239 240 239
236 237 248 254 254 244 243 230 244 248 257 267 283 273 261 275 247 240 211 205 193 182 175 168 163 158 153 149 151 148 148 151 153 155 163 170 175 199 203 225 234 253 273 268
238 237 240 238 243 254 249 251 239 248 261 265 270 269 262 254 227 225 186 174 166 162 161 156 155 147 145 140 137 138 134 134 147 155 164 171 175 180 177 172 187 198 265 279
214 258 239 250 246 238 244 254 252 247 255 266 276 286 293 220 219 191 172 161 157 152 146 143 141 138 133 133 131 131 132 134 139 144 147 143 139 133 124 124 155 219 226 213
223 224 249 241 232 229 240 248 247 252 261 267 296 186 200 211 191 181 168 156 150 145 140 136 135 135 134 131 130 128 126 127 129 128 128 128 130 140 131 141 185 231 259 275
193 231 233 237 238 220 246 255 253 258 264 273 217 228 255 182 171 165 163 157 150 144 139 137 137 136 135 134 131 130 130 130 130 131 133 137 156 180 209 195 180 167 276 275
219 237 244 224 230 199 208 251 204 226 258 258 243 240 208 164 167 164 162 156 150 145 144 144 144 144 139 137 135 135 136 140 143 146 153 133 126 124 131 152 178 236 278 286
232 234 233 133 153 204 223 239 232 229 238 244 228 154 157 164 165 163 161 160 156 154 151 150 151 151 148 144 146 147 147 144 131 132 131 131 134 131 123 162 284 307 299 303
215 236 217 187 214 222 241 269 232 244 230 214 181 173 172 172 171 169 168 165 164 162 154 153 157 158 153 152 153 147 142 139 140 132 132 131 135 129 136 328 308 291 308 306
255 249 234 215 240 256 266 248 253 236 224 202 189 183 179 177 176 174 173 172 168 165 160 156 156 156 154 149 150 149 146 145 141 141 140 137 136 120 162 256 283 303 312 312
247 246 271 268 268 257 258 258 252 233 220 207 192 188 184 181 180 177 176 174 171 166 163 158 158 154 155 153 151 151 148 147 152 160 150 142 161 187 255 285 300 300 294 302
246 252 262 250 252 251 254 242 243 241 222 202 197 190 185 183 180 177 175 173 171 169 165 162 158 154 151 152 158 154 154 162 170 173 168 148 177 302 300 300 300 305 306 303
266 271 268 274 285 269 252 240 235 238 227 204 196 191 187 182 179 177 174 173 172 168 163 158 154 151 152 157 161 158 161 176 184 186 181 203 228 251 267 309 316 320 318 318
251 256 269 256 248 252 242 239 217 220 224 205 193 189 183 178 174 172 172 170 166 161 156 152 150 152 154 158 165 171 172 173 161 173 213 245 260 263 270 271 281 287 302 306
287 247 260 278 266 248 228 199 202 192 205 197 184 182 179 173 170 167 163 159 155 152 149 149 151 147 151 153 151 156 164 176 194 244 263 269 272 279 277 286 292 294 296 304
300 275 269 264 258 242 227 199 178 179 176 185 174 171 170 162 158 154 149 153 151 145 146 149 145 146 152 151 155 184 219 247 263 265 276 276 282 278 280 287 292 292 297 299
304 295 276 255 242 229 228 215 195 181 157 160 162 152 153 150 146 146 145 153 158 151 148 151 160 149 137 186 215 235 262 264 271 269 263 272 273 276 281 288 293 293 297 299
308 300 298 276 247 201 171 166 161 159 149 156 166 162 157 159 155 153 154 152 149 141 141 153 167 172 188 210 224 240 259 275 275 273 278 280 281 282 285 291 294 298 299 299
19 25 51 76 101 125 134 140 149 156 158 161 163 158 160 158 151 147 146 149 148 155 158 163 168 191 208 230 250 264 274 278 280 282 282 288 292 291 295 295 297 299 302 304
56 81 101 118 129 146 140 138 141 139 145 155 148 142 139 139 141 139 147 143 150 152 150 155 193 224 244 262 281 286 286 286 284 285 287 289 292 292 297 301 301 303 302 301
75 83 93 100 103 110 115 123 126 126 135 138 136 135 133 137 139 140 141 136 136 141 138 194 249 270 284 302 301 299 298 295 292 287 290 292 294 296 294 297 299 300 300 299
87 92 97 102 103 104 109 114 117 121 124 127 129 131 131 127 127 124 119 116 118 117 195 236 254 285 307 313 301 301 299 295 292 290 290 290 291 292 294 295 297 297 297 301
89 93 97 98 99 101 103 102 104 108 109 111 112 112 111 105 91 87 102 102 166 205 232 273 301 306 313 313 303 299 297 294 296 293 291 291 288 288 291 292 293 297 300 300
90 88 90 94 98 95 90 91 95 97 101 103 102 96 85 84 102 117 138 207 254 274 278 306 315 318 318 309 306 301 300 297 293 294 290 289 295 293 291 291 295 296 298 302
89 86 83 80 77 75 78 80 80 78 80 80 78 76 77 99 103 64 341 314 316 326 312 312 313 312 315 311 305 302 302 300 295 286 291 287 287 289 290 289 292 294 296 304
79 80 80 82 79 76 75 77 79 76 66 64 60 48 34 28 27 1 333 321 320 323 306 317 313 317 318 314 303 305 303 299 297 292 286 293 293 292 290 290 292 296 301 303
77 73 67 65 61 60 62 65 61 54 63 57 46 31 23 8 4 351 351 333 324 328 329 323 325 313 314 310 310 304 297 296 293 290 293 299 298 294 292 293 295 299 304 306
Wind_Speed_850mb
44 40 30 39 41 42 42 36 33 30 33 26 23 18 23 11 3 11 16 19 21 24 26 27 26 27 28 27 26 26 26 25 24 20 17 12 7 8 12 16 20 24 26 31
45 41 37 35 36 37 38 36 37 37 39 26 27 29 24 25 15 20 17 16 18 23 26 26 26 28 27 27 24 22 26 23 20 18 17 18 18 16 12 13 16 15 16 16
33 34 37 35 36 39 37 36 33 35 30 30 29 24 21 29 20 20 20 22 25 27 27 27 27 27 28 28 29 28 28 26 24 21 19 15 12 9 7 5 5 4 6 10
19 6 36 21 32 41 43 42 38 35 37 35 37 38 15 11 20 23 26 29 30 33 34 33 34 34 35 33 32 31 29 26 22 19 17 15 13 12 9 7 3 3 4 7
18 24 28 36 28 22 29 35 36 36 35 37 34 5 14 17 24 33 35 36 35 35 36 36 34 34 34 33 32 31 29 26 23 23 22 21 18 12 11 8 7 11 11 15
14 29 37 27 33 33 28 30 32 31 26 16 12 14 21 39 38 38 38 37 38 37 36 35 34 35 36 34 33 32 30 28 25 23 20 18 13 12 6 5 2 1 1 7
24 17 16 21 26 30 30 23 11 10 18 19 20 26 8 45 43 42 39 38 37 36 35 35 35 35 36 35 33 32 31 28 23 17 12 10 14 13 9 6 5 6 10 10
19 25 33 11 19 24 33 48 18 22 22 23 22 21 40 46 49 49 45 41 38 38 37 37 37 37 37 35 33 30 25 18 19 20 18 15 12 8 5 1 3 6 10 12
18 11 21 42 35 51 45 37 26 28 23 26 36 41 47 51 53 51 49 46 42 40 39 36 34 36 37 35 32 26 25 24 21 19 15 12 9 5 2 2 4 9 11 12
26 22 23 23 42 39 25 41 36 29 28 33 47 49 54 54 55 53 50 48 44 44 41 39 35 33 32 32 30 28 26 23 20 18 13 10 7 5 3 3 7 11 13 14
33 35 44 40 32 33 38 31 31 27 31 38 46 53 58 58 57 53 51 47 46 44 43 40 38 36 33 31 30 27 24 21 18 16 13 8 6 6 5 15 16 17 20 22
17 28 22 30 37 20 35 37 37 35 34 42 48 55 58 57 54 53 51 49 46 44 43 41 39 35 32 29 29 27 24 20 17 13 12 8 5 11 16 18 19 20 24 25
28 38 31 38 21 25 31 31 30 36 39 42 45 49 55 53 53 53 50 47 45 44 42 40 37 34 30 32 32 28 22 18 15 9 8 7 4 4 4 23 28 32 33 33
47 41 31 37 21 26 24 22 27 29 36 41 45 47 51 50 51 51 49 46 45 43 39 36 34 33 30 27 26 24 20 17 11 7 6 5 6 8 8 11 12 12 24 34
24 24 35 27 24 21 18 20 18 26 30 37 44 47 51 53 51 47 46 46 43 41 40 39 38 33 29 25 20 17 14 11 9 9 11 12 13 13 12 13 13 16 18 20
19 18 22 20 19 19 17 23 30 32 29 30 38 42 44 44 48 52 48 47 49 45 45 44 36 26 23 18 11 7 8 9 9 10 12 12 13 12 12 13 14 15 18 22
19 21 20 23 20 14 15 15 21 31 43 37 37 47 49 60 63 63 57 55 51 52 47 38 30 25 16 9 12 10 13 11 12 12 14 16 16 16 16 16 16 17 19 24
18 19 15 15 14 11 12 15 22 30 38 50 58 71 73 69 64 56 57 55 46 42 35 29 24 20 17 17 16 13 13 15 15 16 17 20 20 20 19 18 18 19 22 25
14 10 11 15 14 19 24 29 35 39 47 57 68 68 65 51 51 57 54 48 42 36 29 22 16 14 12 12 13 13 14 16 16 19 20 23 20 19 18 19 20 22 23 25
15 15 14 18 22 19 28 30 37 42 41 45 49 53 61 61 56 52 43 37 29 23 19 15 10 9 9 10 12 15 17 19 19 21 24 22 19 22 19 23 23 23 24 25
31 29 32 36 41 41 43 41 44 51 48 52 61 64 60 53 44 36 28 23 19 15 10 5 7 9 12 13 14 17 19 21 22 21 21 19 20 19 22 22 23 24 26 27
46 49 52 55 57 57 53 53 57 58 55 50 47 45 44 41 32 24 16 12 11 6 4 8 10 10 16 17 20 22 22 22 22 22 19 20 21 22 23 24 25 26 27 28
57 57 60 64 66 65 60 55 51 49 48 43 39 34 32 29 23 15 13 4 5 6 6 11 17 21 20 21 21 23 22 21 21 20 21 22 24 24 25 26 27 28 28 29
64 63 60 56 53 55 59 51 46 43 40 35 33 30 23 16 11 6 4 5 5 6 13 17 20 24 27 24 21 22 23 19 22 23 25 27 27 27 28 28 29 28 30 31
59 57 54 53 54 51 46 42 41 37 33 30 24 19 14 12 5 4 4 6 7 7 19 24 27 28 26 20 21 22 22 21 23 26 26 25 27 28 29 30 30 31 35 38
54 54 51 50 46 42 38 36 36 32 27 23 21 19 17 15 12 8 9 11 15 16 17 19 23 26 21 21 23 25 25 25 25 25 29 27 28 30 31 31 31 33 35 38
46 40 38 40 39 36 32 29 27 25 22 22 18 17 14 15 13 12 12 14 17 19 19 20 21 25 26 25 25 24 26 26 28 30 29 29 28 29 29 29 33 38 41 42
Wind_Direction_850mb
232 246 229 223 215 225 232 233 241 253 259 247 256 275 297 39 355 234 247 239 217 203 183 173 163 159 159 155 156 154 156 164 169 172 162 185 220 235 226 226 233 239 240 239
236 237 248 254 254 244 243 230 244 248 257 267 283 273 261 275 247 240 211 205 193 182 175 168 163 158 153 149 151 148 148 151 153 155 163 170 175 199 203 225 234 253 273 268
238 237 240 238 243 254 249 251 239 248 261 265 270 269 262 254 227 225 186 174 166 162 161 156 155 147 145 140 137 138 134 134 147 155 164 171 175 180 177 172 187 198 265 279
214 258 239 250 246 238 244 254 252 247 255 266 276 286 293 220 219 191 172 161 157 152 146 143 141 138 133 133 131 131 132 134 139 144 147 143 139 133 124 124 155 219 226 213
223 224 249 241 232 229 240 248 247 252 261 267 296 186 200 211 191 181 168 156 150 145 140 136 135 135 134 131 130 128 126 127 129 128 128 128 130 140 131 141 185 231 259 275
193 231 233 237 238 220 246 255 253 258 264 273 217 228 255 182 171 165 163 157 150 144 139 137 137 136 135 134 131 130 130 130 130 131 133 137 156 180 209 195 180 167 276 275
219 237 244 224 230 199 208 251 204 226 258 258 243 240 208 164 167 164 162 156 150 145 144 144 144 144 139 137 135 135 136 140 143 146 153 133 126 124 131 152 178 236 278 286
232 234 233 133 153 204 223 239 232 229 238 244 228 154 157 164 165 163 161 160 156 154 151 150 151 151 148 144 146 147 147 144 131 132 131 131 134 131 123 162 284 307 299 303
215 236 217 187 214 222 241 269 232 244 230 214 181 173 172 172 171 169 168 165 164 162 154 153 157 158 153 152 153 147 142 139 140 132 132 131 135 129 136 328 308 291 308 306
255 249 234 215 240 256 266 248 253 236 224 202 189 183 179 177 176 174 173 172 168 165 160 156 156 156 154 149 150 149 146 145 141 141 140 137 136 120 162 256 283 303 312 312
247 246 271 268 268 257 258 258 252 233 220 207 192 188 184 181 180 177 176 174 171 166 163 158 158 154 155 153 151 151 148 147 152 160 150 142 161 187 255 285 300 300 294 302
246 252 262 250 252 251 254 242 243 241 222 202 197 190 185 183 180 177 175 173 171 169 165 162 158 154 151 152 158 154 154 162 170 173 168 148 177 302 300 300 300 305 306 303
266 271 268 274 285 269 252 240 235 238 227 204 196 191 187 182 179 177 174 173 172 168 163 158 154 151 152 157 161 158 161 176 184 186 181 203 228 251 267 309 316 320 318 318
251 256 269 256 248 252 242 239 217 220 224 205 193 189 183 178 174 172 172 170 166 161 156 152 150 152 154 158 165 171 172 173 161 173 213 245 260 263 270 271 281 287 302 306
287 247 260 278 266 248 228 199 202 192 205 197 184 182 179 173 170 167 163 159 155 152 149 149 151 147 151 153 151 156 164 176 194 244 263 269 272 279 277 286 292 294 296 304
300 275 269 264 258 242 227 199 178 179 176 185 174 171 170 162 158 154 149 153 151 145 146 149 145 146 152 151 155 184 219 247 263 265 276 276 282 278 280 287 292 292 297 299
304 295 276 255 242 229 228 215 195 181 157 160 162 152 153 150 146 146 145 153 158 151 148 151 160 149 137 186 215 235 262 264 271 269 263 272 273 276 281 288 293 293 297 299
308 300 298 276 247 201 171 166 161 159 149 156 166 162 157 159 155 153 154 152 149 141 141 153 167 172 188 210 224 240 259 275 275 273 278 280 281 282 285 291 294 298 299 299
19 25 51 76 101 125 134 140 149 156 158 161 163 158 160 158 151 147 146 149 148 155 158 163 168 191 208 230 250 264 274 278 280 282 282 288 292 291 295 295 297 299 302 304
56 81 101 118 129 146 140 138 141 139 145 155 148 142 139 139 141 139 147 143 150 152 150 155 193 224 244 262 281 286 286 286 284 285 287 289 292 292 297 301 301 303 302 301
75 83 93 100 103 110 115 123 126 126 135 138 136 135 133 137 139 140 141 136 136 141 138 194 249 270 284 302 301 299 298 295 292 287 290 292 294 296 294 297 299 300 300 299
87 92 97 102 103 104 109 114 117 121 124 127 129 131 131 127 127 124 119 116 118 117 195 236 254 285 307 313 301 301 299 295 292 290 290 290 291 292 294 295 297 297 297 301
89 93 97 98 99 101 103 102 104 108 109 111 112 112 111 105 91 87 102 102 166 205 232 273 301 306 313 313 303 299 297 294 296 293 291 291 288 288 291 292 293 297 300 300
90 88 90 94 98 95 90 91 95 97 101 103 102 96 85 84 102 117 138 207 254 274 278 306 315 318 318 309 306 301 300 297 293 294 290 289 295 293 291 291 295 296 298 302
89 86 83 80 77 75 78 80 80 78 80 80 78 76 77 99 103 64 341 314 316 326 312 312 313 312 315 311 305 302 302 300 295 286 291 287 287 289 290 289 292 294 296 304
79 80 80 82 79 76 75 77 79 76 66 64 60 48 34 28 27 1 333 321 320 323 306 317 313 317 318 314 303 305 303 299 297 292 286 293 293 292 290 290 292 296 301 303
77 73 67 65 61 60 62 65 61 54 63 57 46 31 23 8 4 351 351 333 324 328 329 323 325 313 314 310 310 304 297 296 293 290 293 299 298 294 292 293 295 299 304 306